EHI
1 0 0 0 0 0 0 0 0 0 0 0 1 3 6 8 13 24 36 48 62 71 72 68 62 55 47 43 45 45 42 38 39 38 33 28 26 22 15 9 4 1 1 1
1 0 0 0 0 0 0 0 0 0 0 0 1 3 8 13 17 26 37 47 61 73 77 76 71 61 53 47 47 47 43 40 39 38 33 29 27 24 18 13 8 4 3 4
1 0 0 0 0 0 0 0 0 1 1 3 4 7 14 22 25 30 40 52 64 74 80 82 78 70 60 52 50 50 47 43 41 40 37 33 30 27 24 21 17 12 9 8
2 1 0 0 0 0 1 1 2 3 6 8 9 12 21 29 33 37 48 62 70 74 78 81 80 76 67 58 56 55 52 49 46 44 43 40 37 35 34 32 28 24 19 16
2 1 0 0 1 1 2 5 8 11 12 13 14 19 26 35 41 47 58 70 74 75 78 82 83 82 75 66 63 62 60 58 55 51 49 48 47 46 44 40 35 30 26 24
1 0 0 1 2 2 4 12 19 21 20 21 25 30 34 40 47 55 65 74 76 75 78 85 88 87 79 71 69 69 67 66 63 58 54 52 51 51 49 45 38 32 28 27
0 0 0 1 2 3 9 20 27 28 26 28 33 38 38 41 49 58 66 72 75 78 82 89 93 90 81 73 71 71 71 69 64 58 52 49 51 52 49 45 39 33 29 28
0 0 1 2 2 5 12 20 24 25 25 25 28 31 34 38 47 56 62 66 70 76 83 87 89 86 79 72 70 69 68 66 62 55 46 44 49 50 46 41 36 30 26 25
0 0 1 2 3 6 8 12 16 18 18 18 19 23 27 34 42 49 56 62 66 71 77 78 78 76 72 68 66 64 62 61 59 51 43 41 43 41 36 32 26 21 18 17
0 1 1 2 3 3 3 6 10 14 17 19 19 20 24 31 38 44 50 57 61 64 68 67 65 65 65 63 63 61 59 57 53 44 38 36 34 28 22 19 15 12 11 9
1 1 1 1 1 1 1 5 9 14 19 22 21 20 23 29 35 40 44 47 49 54 57 56 56 56 57 58 58 57 55 51 44 34 26 23 20 14 10 8 6 5 5 5
0 1 1 0 1 1 1 5 9 12 15 18 19 21 24 29 34 36 37 38 40 45 48 48 46 46 48 49 50 49 47 42 33 24 15 10 8 5 3 1 1 1 1 1
0 0 0 0 0 1 2 4 6 8 9 12 16 18 21 26 28 28 28 29 32 37 41 40 37 36 37 39 39 38 35 30 22 15 8 5 4 3 2 1 0 0 0 0
1 1 1 1 1 2 2 2 2 4 6 10 12 13 15 18 19 18 18 19 22 27 31 31 28 26 27 28 28 27 23 16 12 8 5 3 4 4 3 2 1 0 0 0
3 2 1 1 1 3 2 1 0 2 5 7 8 7 8 10 10 10 11 13 15 18 21 21 19 18 18 19 18 16 11 6 5 4 2 1 1 2 2 2 2 1 1 0
3 3 2 2 2 2 2 1 0 1 2 3 4 4 5 6 6 6 7 8 10 11 12 12 10 10 10 10 10 7 4 2 1 1 0 0 0 1 1 2 3 2 2 1
4 4 5 4 3 2 1 1 0 1 1 1 2 2 3 3 4 3 3 4 5 5 6 5 4 4 3 3 2 2 1 0 0 0 0 0 0 1 2 2 2 2 1 1
4 4 5 6 5 3 2 1 1 2 2 1 2 2 2 2 2 1 0 1 1 1 2 1 1 1 0 0 0 0 0 0 0 0 0 0 0 1 1 1 1 1 0 1
3 3 3 4 4 3 3 3 3 3 3 3 2 2 1 1 1 0 0 0 0 0 0 0 0 0 0 0 0 0 0 0 0 0 0 0 0 0 0 0 0 0 0 0
2 3 3 2 2 2 3 3 3 3 2 2 2 1 0 0 0 0 0 0 0 0 0 0 0 0 0 0 0 0 0 0 0 0 0 0 0 0 0 0 0 0 0 0
2 3 3 1 0 1 2 2 2 1 1 1 1 0 0 0 0 0 0 0 0 0 0 0 0 0 0 0 0 0 0 0 0 0 0 0 0 0 0 0 0 0 0 0
1 1 1 0 0 0 1 1 1 0 0 0 0 0 0 0 0 0 0 0 0 0 0 0 0 0 0 0 0 0 0 0 0 0 0 0 0 0 0 0 0 0 0 0
0 0 0 0 0 0 0 0 0 0 0 0 0 0 0 0 0 0 0 0 0 0 0 0 0 0 0 0 0 0 0 0 0 0 0 0 0 0 0 0 0 0 0 0
0 0 0 0 0 0 0 0 0 0 0 0 0 0 0 0 0 0 0 0 0 0 0 0 0 0 0 0 0 0 0 0 0 0 0 0 0 0 0 0 0 0 0 0
0 0 0 0 0 0 0 0 0 0 0 0 0 0 0 0 0 0 0 0 0 0 0 0 0 0 0 0 0 0 0 0 0 0 0 0 0 0 0 0 0 0 0 0
0 0 0 0 0 0 0 0 0 0 0 0 0 0 0 0 0 0 0 0 0 0 0 0 0 0 0 0 0 0 0 0 0 0 0 0 0 0 0 0 0 0 0 0
0 0 0 0 0 0 0 0 0 0 0 0 0 0 0 0 0 0 0 0 0 0 0 0 0 0 0 0 0 0 0 0 0 0 0 0 0 0 0 0 0 0 0 0
Wind_Speed
13 9 8 9 11 12 14 13 12 9 5 3 5 5 8 10 13 15 16 15 15 15 14 13 13 12 13 13 13 13 12 12 11 10 9 8 8 8 8 8 8 7 6 6
15 13 11 12 13 15 18 16 15 12 8 5 5 6 9 11 12 14 15 16 16 16 15 14 14 14 13 13 12 12 12 11 11 11 10 10 9 9 8 8 7 7 7 7
12 12 11 13 14 15 15 15 13 12 8 3 3 6 7 8 10 12 14 15 15 16 15 13 13 12 13 12 12 12 11 11 11 11 11 10 11 10 9 9 8 7 7 7
9 10 14 9 9 10 12 13 11 7 4 3 3 2 3 5 6 8 10 12 13 13 14 14 13 13 12 12 12 12 11 11 11 11 11 10 9 9 9 8 7 7 7 7
8 10 11 11 7 6 8 8 3 0 1 2 2 3 3 4 3 3 4 6 8 12 15 13 13 13 12 12 13 13 13 11 11 11 11 10 10 8 8 7 7 7 6 7
9 8 10 6 7 10 7 4 6 3 1 1 2 2 3 4 4 2 1 3 6 8 10 12 13 13 13 13 13 13 12 11 10 10 9 9 9 7 7 6 6 7 7 7
11 10 6 5 7 8 3 2 7 6 4 6 6 4 4 5 5 4 3 2 4 6 6 6 9 11 11 10 10 9 9 8 8 8 8 8 7 6 6 6 6 6 6 6
6 8 4 7 6 3 1 4 5 6 5 6 6 6 6 7 6 5 5 4 5 6 6 6 7 9 8 8 7 8 8 8 8 8 8 8 6 6 6 6 6 6 5 5
2 2 3 5 4 3 3 2 3 3 3 5 5 6 7 7 7 6 5 5 5 6 7 6 6 7 7 5 6 7 7 7 6 6 5 5 6 6 5 5 5 5 5 6
3 4 5 5 4 3 2 2 2 3 5 5 6 7 7 7 7 6 6 6 6 7 7 6 5 5 5 5 6 6 7 6 5 5 4 3 3 4 4 4 4 4 4 4
2 3 4 5 4 4 5 7 6 7 8 8 7 8 8 7 7 7 7 7 6 6 7 7 6 5 5 5 5 5 5 5 4 4 4 3 3 2 3 2 3 3 3 2
2 2 2 5 5 5 5 6 6 7 9 9 9 9 9 9 8 8 8 8 7 7 8 8 7 6 5 5 5 5 4 4 3 3 3 3 3 3 4 5 5 6 4 2
2 2 3 4 4 5 6 7 7 9 10 10 10 11 11 11 10 10 9 9 8 8 9 9 8 7 6 6 5 4 3 3 2 2 2 3 3 3 3 4 7 7 7 7
4 2 2 3 4 5 7 8 8 11 11 12 11 12 11 12 12 11 10 9 9 10 9 9 9 8 6 5 4 3 3 3 1 0 0 1 1 2 2 2 2 3 7 12
5 3 3 5 6 7 8 8 10 11 12 12 12 12 12 12 12 11 10 9 9 10 10 9 9 7 6 5 5 4 3 2 2 2 2 1 2 2 2 3 3 3 3 4
4 5 6 7 8 8 9 10 11 11 11 12 12 12 11 11 11 10 10 9 9 9 9 8 7 6 5 5 4 3 3 3 2 1 2 2 2 3 3 3 3 3 4 2
4 5 6 7 8 9 10 10 11 10 11 11 11 10 10 10 10 10 9 8 7 7 7 7 6 5 5 4 3 2 2 1 1 3 3 3 3 3 4 4 4 4 4 2
6 7 7 8 8 9 10 10 10 10 9 10 10 10 9 9 8 8 7 6 7 7 7 7 6 4 4 4 3 3 2 1 1 2 2 2 3 4 4 5 6 6 4 3
10 10 10 10 10 9 9 8 8 8 8 8 8 7 7 7 6 5 5 4 5 5 4 4 4 3 3 4 4 2 3 3 3 3 3 2 3 4 4 5 5 5 5 5
10 10 11 10 9 9 8 6 6 6 6 6 6 6 6 5 4 3 3 2 3 3 2 3 1 2 3 4 5 4 4 4 4 4 4 4 4 5 5 6 6 7 6 5
9 9 9 8 8 7 6 5 5 5 5 5 5 4 4 3 2 1 1 2 3 3 2 2 2 3 4 5 6 5 5 5 5 5 5 5 5 6 6 6 6 6 6 6
6 6 7 6 6 5 4 4 4 4 4 4 4 4 3 1 1 1 2 2 4 3 2 2 3 5 6 7 5 5 6 6 5 5 5 5 5 6 6 6 6 6 6 6
6 6 6 5 4 4 4 4 4 4 3 3 3 3 2 2 2 2 2 3 3 3 2 2 3 3 5 5 5 5 5 6 5 5 5 5 6 6 6 7 6 6 6 7
5 5 5 4 4 3 4 4 3 2 2 1 2 3 2 1 2 2 2 3 3 1 2 2 1 2 5 5 5 5 5 5 5 5 6 6 6 6 6 6 7 7 7 8
4 3 2 2 2 2 1 0 0 1 1 2 3 3 3 3 3 3 3 2 1 0 2 1 3 3 4 5 5 5 5 5 5 6 6 6 7 7 7 6 6 7 7 7
3 2 2 3 3 2 2 2 2 2 2 2 3 3 3 3 3 3 2 3 3 2 3 2 1 2 3 4 4 5 5 5 5 5 6 6 7 7 7 7 9 7 7 6
1 1 1 1 2 3 3 3 3 3 3 3 3 3 3 3 4 4 5 5 4 3 4 3 3 3 3 4 4 5 5 5 5 6 6 6 6 6 7 8 6 7 7 7
Wind_Direction
258 243 233 256 268 277 273 266 270 271 259 217 203 182 179 174 165 166 170 171 167 167 170 171 172 172 175 177 177 176 177 182 181 181 181 183 180 177 181 188 194 191 195 201
263 253 241 237 237 245 255 257 257 258 256 213 185 198 193 174 171 171 174 176 174 172 172 173 175 176 178 178 178 175 180 185 179 181 182 185 184 183 185 192 199 192 198 205
268 269 268 248 238 240 244 247 247 251 250 192 188 220 183 164 174 177 179 180 178 176 175 175 177 176 178 178 175 178 182 185 180 183 185 187 191 188 190 193 198 201 202 210
272 269 257 261 255 254 259 254 245 239 219 181 177 186 147 151 172 186 181 181 179 179 178 177 177 175 178 179 178 181 184 186 182 185 187 187 191 190 189 190 197 203 207 213
260 261 265 272 284 308 293 287 294 136 120 122 155 136 104 92 123 170 179 171 174 180 178 174 175 174 176 181 181 184 188 189 185 186 187 186 190 189 186 190 197 202 205 214
246 252 256 290 325 323 308 294 351 38 48 79 100 156 97 80 89 100 133 157 172 181 177 172 173 172 178 184 185 188 188 186 181 180 183 187 189 188 186 190 200 206 211 213
248 251 256 331 318 332 308 324 352 6 46 68 68 66 70 67 77 73 68 84 131 139 145 153 160 164 173 180 184 182 176 172 172 175 180 181 183 181 182 193 206 215 222 218
251 248 251 1 359 15 347 331 10 16 35 75 79 73 72 72 72 74 79 86 108 113 114 117 132 149 162 173 172 165 162 163 165 165 178 182 176 178 185 198 208 217 227 234
310 308 14 1 21 356 297 332 14 24 46 71 85 80 73 73 72 69 74 81 86 104 105 107 118 133 147 144 137 138 139 142 144 151 164 161 170 181 191 203 220 225 224 231
331 355 354 344 352 318 302 50 32 43 61 71 84 85 85 81 73 70 68 73 79 92 101 99 101 107 115 119 126 129 133 137 139 149 161 154 159 179 194 206 219 231 239 243
314 333 336 322 329 339 13 30 37 56 62 67 78 85 88 83 76 73 72 72 77 86 94 98 95 93 94 101 112 121 126 130 141 153 157 162 166 175 185 201 200 218 245 259
318 322 303 302 329 353 28 37 42 60 62 61 69 76 80 82 79 78 76 74 75 79 86 92 93 87 81 89 105 115 122 127 140 152 158 176 184 204 213 218 198 204 216 231
347 344 318 322 355 25 44 46 51 66 68 69 70 74 78 78 76 74 74 77 80 84 85 85 85 79 70 71 85 104 117 124 144 158 171 197 208 212 212 218 222 231 232 231
35 32 21 10 32 58 68 68 71 73 72 73 75 75 77 78 77 73 71 72 76 79 81 81 78 73 68 70 71 76 95 102 87 99 208 233 228 246 254 252 233 240 232 229
26 42 67 64 63 69 71 77 81 79 76 75 73 72 73 75 75 72 70 71 72 74 74 76 75 68 62 64 63 55 53 64 48 12 340 323 307 299 297 296 287 276 272 225
40 63 72 74 73 72 73 75 79 78 78 77 75 74 76 77 76 73 69 68 72 71 69 69 67 62 58 57 55 52 58 62 43 337 305 294 287 290 295 295 292 291 291 299
70 71 82 86 81 77 74 71 75 75 74 76 77 78 79 80 78 73 71 70 73 74 74 75 68 54 47 43 33 27 32 50 267 283 299 327 333 328 318 306 302 299 297 305
78 85 84 90 90 84 83 80 80 78 77 78 77 74 73 73 73 73 71 70 73 69 62 62 58 46 35 29 13 0 354 330 301 316 328 331 321 307 302 303 299 297 298 295
73 78 79 83 84 82 83 82 80 79 77 76 77 77 78 78 77 80 81 77 81 81 67 63 50 25 22 27 358 324 314 316 319 316 307 302 292 297 300 299 303 308 313 319
74 77 82 86 88 87 86 84 85 87 91 93 92 88 80 74 70 66 68 68 69 74 77 64 26 8 21 20 343 318 320 324 322 318 314 313 315 316 316 318 322 324 324 322
81 83 88 88 86 83 86 93 96 97 96 96 96 97 97 95 94 82 64 82 78 58 45 62 24 16 25 350 315 322 331 329 324 323 327 326 324 322 321 322 322 323 322 322
92 89 87 86 89 89 88 85 81 79 80 78 75 76 83 86 68 64 64 75 90 63 6 19 40 37 7 332 324 325 324 324 329 333 331 328 327 325 322 320 320 324 324 321
78 75 72 70 74 80 86 79 69 63 58 53 42 34 30 21 16 17 50 67 70 57 359 30 58 28 341 321 319 318 323 327 329 331 331 330 326 321 321 321 321 322 319 319
63 58 53 53 56 60 59 52 46 36 29 28 40 38 12 9 26 27 52 85 80 58 342 91 150 317 309 308 317 327 336 341 344 341 337 332 324 321 322 322 323 324 323 323
47 36 40 21 15 39 55 298 277 0 349 28 28 38 23 21 15 14 5 25 99 272 308 170 218 265 293 318 332 342 346 352 346 332 327 328 327 327 329 333 336 330 325 323
28 1 16 348 348 327 334 16 17 7 7 19 13 19 16 2 352 351 339 334 339 319 311 331 313 275 307 328 340 345 342 340 332 328 336 337 335 335 335 338 335 329 325 323
14 347 321 333 8 6 5 10 2 0 6 6 360 360 349 343 340 343 340 335 335 332 333 334 338 342 342 344 349 351 348 342 340 344 343 341 340 337 336 336 331 327 326 324